Overview Statistics Trail Chart Weather Telemetry Raw packets
 

This is the latest recevied weather packets stored in our database for station/object DG2GGP-11. If no packets are shown the sender has not sent any weather packets the latest 10 day(s).

<< 1 2 3 4 >>
Time Temp. Humidity Pressure Rain* Wind** Luminosity Snow
1788597002 17.22° C 76% 1024.1 hPa 0 mm - 11 W/m² -
1788596402 16.67° C 79% 1024 hPa 0 mm - 11 W/m² -
1788595802 16.67° C 81% 1024.1 hPa 0 mm - 7 W/m² -
1788595202 16.11° C 80% 1024 hPa 0 mm - 5 W/m² -
1788594605 16.11° C 82% 1024.1 hPa 0 mm - 3 W/m² -
1788594002 16.67° C 82% 1024.1 hPa 0 mm - 4 W/m² -
1788593402 16.67° C 88% 1024.1 hPa 0 mm - 5 W/m² -
1788592819 16.11° C 88% 1024.1 hPa 0 mm - 3 W/m² -
1788592202 16.11° C 88% 1024 hPa 0 mm - 3 W/m² -
1788591602 15.56° C 88% 1023.9 hPa 0 mm - 3 W/m² -
1788591002 15.56° C 87% 1023.8 hPa 0 mm - 1 W/m² -
1788590402 15.56° C 87% 1023.7 hPa 0 mm - 0 W/m² -
1788589802 15.56° C 86% 1023.5 hPa 0 mm - 0 W/m² -
1788589202 15.56° C 85% 1023.6 hPa 0 mm - 0 W/m² -
1788588602 16.11° C 85% 1023.3 hPa 0 mm - 0 W/m² -
1788588002 16.11° C 85% 1023.3 hPa 0 mm - 1 W/m² -
1788587402 16.11° C 84% 1023.3 hPa 0 mm - 0 W/m² -
1788586802 16.11° C 85% 1023.1 hPa 0 mm - 0 W/m² -
1788586202 16.11° C 85% 1023.1 hPa 0 mm - 0 W/m² -
1788585602 16.11° C 87% 1023 hPa 0 mm - 0 W/m² -
1788585002 16.11° C 86% 1022.7 hPa 0 mm - 0 W/m² -
1788584402 16.11° C 85% 1022.6 hPa 0 mm - 0 W/m² -
1788583802 16.67° C 85% 1022.6 hPa 0 mm - 0 W/m² -
1788583202 16.67° C 85% 1022.6 hPa 0 mm - 0 W/m² -
1788582602 16.67° C 84% 1022.5 hPa 0 mm - 0 W/m² -

* Rain latest hour (hover to see other rain measurements)
** Current wind speed in m/s (hover to see current wind gust speed)